TIME,DELAY(SENSOR),PRES,OXYGEN,RAWTEMP,T(OPTODE),TCPHASE,FLUOR,BETA(BETA700),BETA(BETA412),BETA(BETA440),CDOM,C(CSC),ED(ED412.20),ED(ED444.00),ED(ED489.60),ED(ED554.30),LU(LU412.10),LU(LU443.90),LU(LU489.70),LU(LU554.70),COMP,TILTX,TILTY,CHECK
1363578927,5809,882.0100097656250000,35.6488800048828100,563.0280761718750000,4.3920102119445800,56.2145195007324200,54,98,100,78,82,15513,0,0,0,0,2147126848,2147774802,2147574564,2147571282,591,2,13,13466
1363582523,5811,963.5100097656250000,38.4996109008789060,569.8892211914062000,4.1790051460266110,55.8413696289062500,55,99,100,77,81,15510,0,0,0,0,2147120795,2147775853,2147573312,2147569874,117,3,13,6123
1363586123,5811,964.0100097656250000,39.8901100158691400,570.4202270507812000,4.1625018119812010,55.6379890441894500,55,97,98,77,83,15511,0,0,0,0,2147124370,2147770130,2147575981,2147570816,3484,2,13,35970
1363589723,5808,990.3900146484375000,42.6546401977539060,572.4072875976562000,4.1007289886474610,55.2542114257812500,55,96,100,78,82,15507,0,0,0,0,2147122505,2147769892,2147571602,2147570139,3580,2,13,32833
1363593323,5809,991.9199829101562000,43.2914505004882800,573.0554809570312000,4.0805702209472660,55.1644096374511700,55,98,99,78,82,15508,0,0,0,0,2147125174,2147772370,2147571922,2147566912,313,2,13,57349
1363596923,5810,996.6099853515625000,43.2060089111328100,573.6508178710938000,4.0620541572570800,55.1829681396484400,55,98,99,78,82,15506,0,0,0,0,2147122816,2147769645,2147573915,2147567762,757,3,13,8271
1363600523,5810,995.6300048828125000,43.2895088195800800,573.7761840820312000,4.0581531524658200,55.1753005981445300,55,96,101,78,82,15505,0,0,0,0,2147127890,2147774409,2147577682,2147569261,3098,2,13,62908
1363604123,5809,1000.7600097656250000,42.8845100402832000,573.2924804687500000,4.0731978416442870,55.2282600402832000,55,98,100,103,82,15508,0,0,0,0,2147122633,2147773549,2147572918,2147568969,3346,2,13,10115
1363607723,5810,1007.5000000000000000,42.4849090576171900,572.7365722656250000,4.0904879570007320,55.2789192199707000,55,98,100,78,82,15505,0,0,0,0,2147125723,2147772123,2147574683,2147571062,69,2,13,38618
1363611323,5810,1007.0900268554688000,42.1198616027832000,572.4356079101562000,4.0998477935791020,55.3268508911132800,55,97,100,78,81,15502,0,0,0,0,2147125476,2147779318,2147570029,2147570176,3550,2,13,15365
1363614923,5811,999.9199829101562000,42.3143386840820300,573.6118774414062000,4.0632629394531250,55.3158302307128900,55,98,99,80,83,15500,0,0,0,0,2147125494,2147779273,2147575926,2147569152,2738,2,13,14071
1363618523,5811,998.7399902343750000,42.7869110107421900,575.0352783203125000,4.0189762115478520,55.2611503601074200,54,98,99,77,82,15504,0,0,0,0,2147125202,2147772288,2147577499,2147569088,90,3,13,26279
1363622123,5807,997.5399780273438000,42.4824104309082000,574.9934082031250000,4.0202832221984860,55.3060607910156250,55,99,101,78,83,15502,0,0,0,0,2147126208,2147776054,2147572781,2147568374,596,2,13,5631
1363625723,5809,1000.1799926757812000,42.7276802062988300,574.4564819335938000,4.0369868278503420,55.2622909545898440,55,96,100,79,82,15503,0,0,0,0,2147126345,2147772288,2147574052,2147567981,3365,2,13,26001
1363629323,5808,995.5399780273438000,42.1574287414550800,575.1550292968750000,4.0152530670166020,55.3514289855957000,55,98,100,77,82,15492,0,0,0,0,2147124416,2147775414,2147578989,2147566400,3359,2,13,34629
1363632923,5812,1005.8599853515625000,42.1581382751464840,574.8618774414062000,4.0243740081787110,55.3507385253906250,55,98,99,77,81,15491,0,0,0,0,2147124818,2147774025,2147581860,2147573668,97,3,13,52390
1363636523,5810,1006.2100219726562000,42.8090095520019500,574.0236206054688000,4.0504570007324220,55.2477989196777340,54,99,100,77,82,15490,0,0,0,0,2147125504,2147773485,2147576310,2147571227,3482,3,13,32507
1363640123,5808,1007.5200195312500000,42.3848495483398440,574.1812744140625000,4.0455508232116700,55.3058509826660160,55,97,100,78,82,15491,0,0,0,0,2147126994,2147774866,2147572608,2147568484,3512,2,13,16972
1363643723,5809,1003.3699951171875000,42.0369606018066400,574.9284057617188000,4.0223050117492680,55.3687286376953100,55,97,100,77,81,15490,0,0,0,0,2147125851,2147773494,2147576886,2147565101,99,2,13,23807
1363647323,5810,1003.9199829101562000,41.8964500427246100,575.0114746093750000,4.0197181701660160,55.3889617919921900,54,104,100,78,82,15492,0,0,0,0,2147123885,2147776521,2147572150,2147567936,9,3,13,42517
1363650923,5808,1001.2800292968750000,41.9372482299804700,575.0847167968750000,4.0174407958984375,55.3862190246582000,56,98,100,78,81,15489,0,0,0,0,2147122267,2147777344,2147574610,2147565760,3449,3,13,31605
1363654523,5813,1005.5599975585938000,42.2460212707519500,575.4633178710938000,4.0056610107421875,55.3455810546875000,56,96,99,78,81,15484,0,0,0,0,2147126774,2147774281,2147574171,2147566272,98,3,13,52516
1363658123,5810,1005.7999877929688000,42.8270492553710940,574.1295776367188000,4.0471568107604980,55.2420387268066400,55,97,100,77,81,15490,0,0,0,0,2147126080,2147775232,2147574564,2147569600,307,2,13,39218
1363661723,5812,1009.6199951171875000,41.9552192687988300,574.3668823242188000,4.0397758483886720,55.3721008300781250,54,97,100,79,83,15485,0,0,0,0,2147125312,2147772946,2147578505,2147570276,82,2,13,1726
1363665323,5812,1010.4299926757812000,42.7040901184082000,574.2821044921875000,4.0424141883850100,55.2676582336425800,54,98,100,78,82,15486,0,0,0,0,2147123931,2147769289,2147575533,2147572032,80,2,13,6407
1363668923,5810,1010.7199707031250000,42.1221885681152340,574.2963256835938000,4.0419731140136720,55.3460311889648440,55,98,98,78,81,15484,0,0,0,0,2147122898,2147773805,2147573284,2147568356,308,3,13,11202
1363672523,5807,1006.6300048828125000,42.2864418029785160,575.1224975585938000,4.0162639617919920,55.3322105407714840,55,99,99,77,81,15479,0,0,0,0,2147123291,2147776329,2147576109,2147568246,222,2,13,3117
1363676123,5810,1011.7000122070312000,42.4815216064453100,575.1071777343750000,4.0167388916015625,55.3084297180175800,55,99,100,79,81,15480,0,0,0,0,2147123940,2147776512,2147578587,2147569563,3082,2,13,25642
1363679723,5811,1013.0000000000000000,42.8784103393554700,575.0026245117188000,4.0199971199035645,55.2489814758300800,55,101,104,77,81,15482,0,0,0,0,2147123995,2147773686,2147574592,2147567826,2886,2,13,30447
1363683323,5809,1011.5100097656250000,42.7761001586914060,574.9274291992188000,4.0223369598388670,55.2608985900878900,55,98,99,77,82,15479,0,0,0,0,2147122496,2147770313,2147580699,2147569618,3456,2,13,44424
1363686923,5810,1013.5900268554688000,42.6907386779785160,575.1110839843750000,4.0166211128234860,55.2733306884765600,55,98,100,78,81,15479,0,0,0,0,2147124379,2147776274,2147576749,2147570505,3065,2,13,22207
1363690523,5811,1015.5900268554688000,42.9159889221191400,574.3480834960938000,4.0403609275817870,55.2350387573242200,56,99,101,77,81,15479,0,0,0,0,2147123565,2147775469,2147575542,2147568886,3374,2,13,48094
1363694123,5811,1007.9000244140625000,42.3434295654296900,573.9044799804688000,4.0541591644287110,55.3157196044921900,55,96,101,79,81,15481,0,0,0,0,2147125705,2147769508,2147572150,2147568228,3112,2,13,61045
1363697723,5812,1021.9699707031250000,42.3784599304199200,572.8441772460938000,4.0871429443359375,55.2971992492675800,55,98,101,77,81,15479,0,0,0,0,2147125577,2147777874,2147574518,2147568018,3229,3,13,17346
1363701323,5811,1017.5900268554688000,42.3771286010742200,572.8052978515625000,4.0883498191833500,55.2928085327148440,55,97,99,78,81,15479,0,0,0,0,2147121371,2147774546,2147575652,2147569654,3248,2,13,60904
1363704923,5808,1009.2199707031250000,41.8217201232910160,573.6923828125000000,4.0607600212097170,55.3843498229980500,55,97,100,78,81,15477,0,0,0,0,2147127808,2147772004,2147573997,2147569216,223,2,13,35257
1363708523,5808,1008.5200195312500000,42.0667114257812500,574.5092163085938000,4.0353507995605470,55.3564186096191400,54,99,99,79,83,15478,0,0,0,0,2147126098,2147772845,2147574454,2147568841,233,2,13,49710
1363712123,5811,1008.2000122070312000,42.4455909729003900,574.8845214843750000,4.0236721038818360,55.3057899475097660,54,99,100,78,82,15480,0,0,0,0,2147123081,2147773979,2147572809,2147570898,340,2,13,4703
1363715723,5809,1009.0200195312500000,42.5618705749511700,575.5803833007812000,4.0020141601562500,55.3003196716308600,55,97,99,79,81,15478,0,0,0,0,2147123008,2147770011,2147573540,2147564416,3218,2,13,18218
1363719323,5809,1013.2800292968750000,42.6722984313964840,575.6243286132812000,4.0006480216979980,55.2809410095214840,53,98,100,78,82,15477,0,0,0,0,2147129280,2147771053,2147574930,2147571373,59,2,13,50478
1363722923,5807,1006.9099731445312000,42.7085685729980500,576.0051269531250000,3.9887959957122803,55.2852210998535160,55,97,100,78,81,15476,0,0,0,0,2147123876,2147769316,2147572891,2147566345,2877,2,13,36549
1363724757,5808,1008.4099731445312000,42.4928588867187500,576.3317260742188000,3.9786279201507570,55.3183403015136700,54,98,100,77,82,15465,0,0,0,0,2147123574,2147774573,2147568539,2147569088,215,3,13,59720
